Theta_e
311 311 311 311 311 312 312 312 313 313 314 314 315 315 316 316 313 308 302 311 314 319 316 307 305 303 305 302 306 307 296 292 293 293 294 297 294 298 300 297 301 300 300 303 307
310 310 310 310 311 311 311 312 312 313 314 314 315 315 316 314 304 302 311 317 318 317 307 304 300 302 300 299 300 300 295 294 295 295 293 295 295 295 295 296 296 298 301 303 304
309 309 309 309 310 310 311 311 312 313 313 314 314 315 315 311 299 300 314 317 317 312 308 305 302 300 297 299 297 296 293 294 294 295 295 294 295 297 295 293 296 295 297 300 301
308 308 308 308 309 310 310 311 311 313 313 315 316 314 313 304 290 304 313 315 314 309 306 303 301 297 295 293 295 292 294 294 294 295 294 293 296 295 295 295 298 300 301 301 300
308 307 308 308 309 309 310 310 312 313 313 315 316 312 304 299 298 307 311 310 309 305 303 300 297 296 293 293 294 292 292 294 295 295 294 296 294 293 295 299 301 301 302 301 301
308 307 307 307 308 309 309 311 313 313 313 315 315 308 302 294 306 308 306 307 307 304 302 302 297 299 295 293 293 294 293 293 294 294 294 293 293 294 297 299 299 301 301 302 302
308 307 306 307 308 309 310 312 313 313 312 314 313 305 301 297 306 308 306 306 307 305 300 301 301 297 296 293 295 293 290 291 293 293 293 295 292 292 298 299 298 300 301 302 303
308 306 306 307 308 310 311 311 312 311 312 313 309 304 297 306 310 307 307 306 308 305 303 302 302 298 295 296 293 290 291 289 291 293 293 294 288 295 299 297 297 299 301 301 303
308 305 306 307 309 310 311 311 311 310 310 309 304 302 295 309 302 305 306 302 305 304 302 301 300 296 294 291 290 291 286 286 288 292 292 292 289 295 298 296 296 298 300 301 302
307 305 306 307 309 309 309 310 309 306 305 303 302 298 300 297 302 303 306 303 299 299 298 298 296 293 293 291 285 284 285 285 285 290 292 291 290 294 296 296 296 297 299 300 301
307 305 305 307 309 308 303 302 298 298 301 295 295 296 297 303 304 301 303 300 299 297 292 293 291 287 288 289 289 287 286 285 287 290 289 289 290 292 295 295 294 296 298 299 299
307 305 305 307 308 306 302 294 294 300 293 298 297 298 300 301 295 299 303 295 294 290 291 292 287 289 290 289 288 287 286 286 288 289 289 289 289 291 294 294 294 295 296 297 299
307 305 304 306 306 303 299 298 302 300 294 292 297 295 297 299 294 295 299 295 292 290 290 289 288 290 289 289 287 287 286 284 284 288 289 289 288 289 293 294 295 296 296 295 296
308 305 304 306 299 299 297 302 303 298 289 287 289 293 297 297 292 298 298 294 291 288 289 288 289 288 288 286 288 284 288 286 285 286 284 289 282 287 290 290 292 294 295 293 294
308 304 304 305 299 295 298 303 302 297 284 286 288 298 296 292 293 293 297 294 288 288 288 285 287 287 287 287 288 285 289 286 286 285 283 286 284 286 290 286 289 292 294 293 294
307 305 305 301 300 300 303 299 297 288 280 283 287 289 290 291 291 293 293 294 292 289 289 287 290 290 289 289 289 290 288 286 286 285 281 283 283 284 285 286 288 291 293 293 293
306 306 302 300 295 302 301 296 287 284 282 282 283 288 287 286 288 288 287 286 286 284 284 284 285 289 291 288 289 288 284 281 279 280 279 283 282 284 288 289 289 289 292 292 294
305 305 302 301 302 299 294 290 281 279 279 284 285 285 284 285 285 286 284 284 285 283 282 282 280 285 289 288 286 286 285 281 274 276 278 283 280 284 291 291 291 293 293 293 293
305 299 299 300 300 297 291 283 283 281 283 283 284 282 281 284 285 284 283 283 285 285 282 281 280 287 289 290 289 285 283 287 280 277 277 282 284 288 290 289 290 291 291 290 290
298 296 296 300 296 294 287 283 282 283 285 285 283 282 280 281 283 282 282 285 284 288 287 283 280 284 287 290 290 288 289 281 282 273 273 278 279 281 284 285 287 289 289 289 290
294 287 296 299 297 289 283 281 282 284 287 284 281 279 281 280 282 281 282 285 286 288 288 286 283 281 285 284 284 285 283 284 284 281 275 274 279 285 284 286 286 288 289 290 288
291 282 297 294 285 277 280 278 285 284 287 285 285 283 282 282 281 281 282 283 288 289 283 286 283 280 281 285 287 288 283 284 280 276 280 279 279 286 287 287 287 288 289 291 290
286 287 296 292 280 278 277 280 284 284 285 284 283 285 284 282 280 283 283 286 288 286 284 286 281 277 278 282 284 284 285 284 283 282 278 276 280 286 288 287 288 287 289 290 290
287 283 287 289 284 282 280 281 281 285 286 286 284 285 283 282 284 281 282 286 288 288 289 287 282 278 277 279 283 279 281 282 283 279 279 280 282 285 285 285 287 287 289 289 289
286 284 287 279 282 281 283 283 281 281 285 286 283 284 283 279 281 281 283 284 287 288 284 283 277 279 279 280 280 280 279 281 280 282 279 281 281 283 284 284 285 286 288 288 287
283 283 284 284 285 282 282 281 282 282 283 282 283 284 283 281 284 280 283 284 283 285 283 280 275 275 272 277 278 277 280 281 281 282 282 282 281 286 286 285 287 286 286 286 286
290 289 288 284 282 281 280 281 283 284 284 285 285 283 281 283 285 287 287 287 286 284 280 278 274 274 273 272 274 273 275 280 282 284 284 279 283 286 285 284 284 285 285 285 286
Wind_Speed
5 6 6 7 8 9 11 12 13 13 13 14 14 13 11 10 6 15 16 14 15 20 17 7 3 5 6 6 6 3 1 5 4 5 6 12 11 9 11 8 2 8 9 14 20
3 5 6 7 9 10 10 12 13 14 13 13 13 12 11 4 3 17 16 21 19 18 7 10 6 7 6 5 6 6 4 5 6 6 9 11 11 10 8 9 6 17 16 18 19
2 4 6 7 9 10 11 12 12 13 13 13 11 11 9 3 4 8 23 22 19 13 2 5 2 4 8 7 10 7 6 4 7 7 6 6 7 7 10 6 13 23 24 22 21
1 3 5 7 9 10 12 12 12 12 12 11 12 9 7 3 4 9 22 21 14 13 3 9 4 5 6 8 5 7 7 6 5 6 4 7 10 13 5 7 16 20 20 19 19
1 3 5 7 8 10 11 12 12 12 10 11 12 8 4 7 7 10 19 15 7 6 14 6 12 5 8 6 5 9 5 7 5 8 9 11 8 5 10 17 20 19 20 18 18
2 4 5 7 8 10 11 12 12 11 10 12 12 4 2 8 6 10 13 10 12 13 15 10 6 11 11 5 5 4 5 5 8 10 3 14 5 3 14 17 20 20 20 19 18
3 4 5 7 8 11 11 11 11 9 10 10 11 4 16 7 3 9 8 6 7 7 8 9 3 2 3 7 4 4 7 5 14 10 7 17 10 13 14 17 20 23 20 19 19
3 3 5 8 9 10 11 11 9 7 9 8 5 2 5 1 2 10 11 4 8 7 5 5 4 10 5 5 4 4 3 3 8 13 6 13 8 15 18 18 23 25 21 20 20
4 3 5 8 9 12 11 7 6 9 6 6 2 2 5 5 4 6 6 7 7 4 6 5 5 6 3 4 5 9 5 5 2 6 9 9 6 15 17 18 19 21 22 20 21
5 3 5 8 9 11 10 5 6 3 3 2 3 4 3 4 4 4 4 5 4 3 1 6 6 6 8 2 4 4 4 1 3 7 10 6 7 11 17 17 21 20 21 22 22
6 3 4 7 9 11 5 1 2 2 9 5 2 5 2 5 4 8 5 3 3 4 3 7 9 10 7 8 9 7 4 1 2 1 7 5 5 13 16 18 22 22 20 22 23
7 3 3 6 8 7 2 0 2 3 8 4 2 4 2 3 2 14 7 3 5 4 1 4 8 3 4 5 8 5 3 6 4 4 5 6 6 4 16 18 19 21 22 25 26
8 4 1 5 5 2 3 3 2 1 4 2 2 3 2 3 4 9 7 2 6 8 5 5 5 3 4 6 7 5 4 3 4 8 2 10 5 1 15 17 19 19 19 19 24
9 5 1 3 2 1 1 1 0 1 3 2 0 2 2 2 4 4 4 2 4 4 5 8 2 2 5 5 3 3 3 4 4 6 2 6 4 3 18 21 23 23 22 19 19
9 5 1 2 3 2 3 2 0 2 2 3 2 2 3 4 2 6 4 3 5 4 3 3 1 2 3 3 1 4 1 1 0 2 4 3 5 5 18 22 24 25 25 21 20
10 6 8 4 1 2 3 2 2 3 7 3 2 1 3 4 3 3 3 7 3 5 11 4 1 3 3 1 2 1 5 3 1 2 2 3 4 4 13 16 22 24 26 23 23
12 8 2 3 0 5 2 1 4 4 2 4 4 2 4 4 3 5 4 4 1 5 1 1 2 1 2 2 2 1 4 1 2 2 2 1 4 4 16 17 18 22 24 21 23
13 10 3 2 4 3 1 2 4 2 5 1 4 6 4 2 3 2 2 4 3 3 4 4 3 2 3 4 2 4 3 2 4 2 4 3 3 5 14 14 17 18 20 22 25
14 2 1 2 3 1 1 2 6 6 8 11 5 4 3 3 2 1 1 2 1 3 0 4 3 1 2 1 3 3 4 2 3 2 4 2 1 3 17 16 19 21 23 22 22
5 2 1 3 2 1 3 5 2 2 6 3 4 2 6 7 5 3 4 2 3 2 1 3 5 0 2 2 4 3 6 3 2 2 4 1 2 5 18 19 19 20 21 20 21
4 3 0 0 1 3 4 5 3 3 1 4 4 5 4 7 6 4 6 2 3 5 1 2 1 4 1 1 2 3 4 2 2 2 3 5 2 3 10 11 15 17 17 18 17
5 3 2 1 2 1 4 6 4 4 2 2 3 5 6 6 5 6 7 2 5 5 5 1 2 4 2 0 4 2 2 2 2 4 3 3 2 3 7 8 11 14 16 16 15
6 3 2 1 6 4 1 3 3 5 5 5 3 2 2 6 4 5 5 2 5 4 5 4 1 4 2 1 1 4 4 2 4 2 5 3 1 1 7 9 10 12 15 15 17
6 6 3 4 0 4 7 5 5 2 4 3 4 4 5 4 2 7 6 3 4 3 6 2 2 2 2 3 2 5 8 6 5 4 3 7 8 4 11 11 11 11 12 13 14
4 6 6 10 11 5 6 12 10 8 3 3 1 5 8 6 5 5 5 5 2 8 4 2 3 2 1 0 1 3 7 10 10 5 6 1 5 6 4 8 9 7 9 11 13
8 6 2 4 11 12 10 12 15 7 10 6 4 11 8 7 8 12 11 8 6 5 5 1 3 2 1 2 1 5 9 10 9 8 9 8 10 5 1 4 6 7 8 9 10
4 2 6 10 10 13 11 9 12 12 4 2 10 9 9 4 3 5 5 8 9 9 5 4 6 3 2 4 4 7 12 16 10 7 8 8 1 3 2 3 4 5 5 6 7
Wind_Direction
13 15 13 9 3 359 355 353 351 351 354 350 344 342 344 342 345 54 37 341 333 331 326 317 22 41 52 60 33 315 90 68 55 18 10 2 356 5 330 327 1 21 7 332 336
15 8 7 3 355 348 351 349 349 347 351 347 345 337 340 351 48 41 355 343 337 341 348 12 30 32 68 33 24 22 45 54 40 32 3 342 349 330 327 351 348 341 341 339 339
19 7 359 355 349 344 344 346 345 345 347 348 349 339 340 312 90 353 344 339 340 342 228 15 33 54 65 41 14 21 56 73 53 31 349 335 331 323 331 12 6 337 330 331 330
8 358 348 345 345 341 339 340 341 344 347 354 349 344 327 255 68 327 334 334 338 356 95 25 37 69 75 67 21 107 69 36 27 15 23 346 315 322 13 16 336 321 319 318 323
314 333 341 338 341 336 336 334 337 338 346 348 353 347 288 60 44 324 328 330 340 6 41 56 54 81 85 83 88 66 61 72 52 26 19 339 357 3 34 343 338 337 329 330 324
284 321 336 332 335 333 332 330 335 333 341 345 1 351 338 80 311 329 331 336 9 36 44 34 72 91 91 88 65 97 98 116 26 16 359 0 24 5 3 347 340 342 335 328 325
251 308 322 326 331 330 330 328 332 331 331 346 1 28 59 83 346 346 349 354 351 26 59 47 49 35 124 113 94 95 107 120 28 10 8 336 66 22 352 344 344 346 340 334 325
235 293 318 323 329 329 323 320 330 331 320 330 19 55 75 7 337 20 355 356 18 33 62 43 59 81 43 126 89 66 88 29 32 6 346 328 58 10 356 348 348 347 341 335 330
227 277 314 321 329 332 326 316 319 331 324 325 60 44 92 315 18 1 19 344 321 354 43 63 59 64 80 144 115 36 77 17 34 38 343 4 25 353 357 355 351 350 341 334 329
214 263 313 323 328 339 328 312 325 355 347 274 88 124 44 1 326 352 19 349 3 315 353 34 59 86 42 201 88 98 111 102 319 12 354 33 44 10 11 360 355 351 346 336 329
202 240 309 326 327 344 344 300 217 98 39 45 79 92 53 321 308 13 11 340 342 44 93 24 76 67 66 64 106 123 137 33 251 86 330 343 315 15 12 6 358 352 347 338 330
190 220 313 328 330 359 360 178 48 65 96 29 51 83 78 335 325 17 6 55 24 76 93 84 81 106 114 109 130 126 109 18 261 278 316 324 288 8 21 8 358 351 348 342 335
183 199 298 323 351 42 40 118 328 318 81 38 14 41 31 23 42 2 7 68 44 57 57 82 94 145 148 95 138 78 69 32 311 312 226 307 217 321 11 7 355 356 352 340 334
180 179 185 332 268 113 110 167 275 331 80 173 229 55 46 71 68 354 19 46 63 121 54 67 33 151 119 80 327 112 118 346 302 319 3 356 302 23 354 2 357 349 348 340 331
172 164 171 173 118 195 82 141 7 242 297 67 69 350 52 68 28 39 25 59 85 87 262 80 119 84 79 66 354 83 337 304 240 332 312 62 275 36 0 355 347 343 345 341 331
160 155 134 105 96 100 141 137 228 48 249 156 288 145 126 49 52 313 51 53 81 80 55 80 13 332 25 103 162 15 137 125 190 259 228 32 324 53 9 348 344 340 338 340 334
154 156 104 112 91 139 159 213 73 201 30 172 149 164 101 69 60 15 28 43 84 120 118 16 36 317 290 162 167 239 174 211 206 232 330 342 263 47 11 358 342 333 337 343 338
142 117 43 38 115 135 226 83 208 78 208 156 127 113 142 109 63 31 114 134 103 83 123 168 181 338 8 1 77 39 11 43 294 294 320 333 277 81 10 354 343 341 345 354 350
124 74 83 111 120 51 149 173 215 188 151 155 112 140 154 128 128 122 25 168 118 163 238 150 121 3 357 332 306 127 67 31 111 49 270 271 184 199 353 356 351 351 355 357 348
108 93 150 133 127 100 85 251 218 167 128 168 171 233 157 161 165 189 183 173 154 138 186 159 123 73 88 248 55 6 146 146 83 310 276 230 261 347 343 341 345 349 353 354 350
83 95 87 272 213 63 191 223 204 208 178 165 145 135 155 153 163 177 164 161 203 133 141 163 246 132 223 298 191 168 150 103 70 277 299 317 91 357 335 337 337 340 352 357 348
110 175 131 329 124 327 182 177 170 158 222 118 111 109 148 157 144 175 192 195 164 154 149 152 102 127 101 54 314 318 131 183 212 175 249 292 288 64 353 352 347 342 352 359 359
110 116 86 261 196 211 100 159 201 144 194 165 136 144 142 155 129 159 162 93 152 155 152 176 177 119 122 178 217 237 186 136 111 125 219 249 68 141 18 10 7 356 353 1 6
118 156 151 200 129 170 158 166 168 198 173 160 123 119 130 125 63 154 142 143 165 130 97 113 137 250 214 94 132 191 188 189 196 190 196 241 296 344 358 358 357 360 357 4 12
147 193 181 180 208 202 200 164 154 173 229 216 133 213 155 134 132 167 145 136 112 137 90 145 159 180 118 59 270 214 191 189 202 206 223 70 262 313 326 336 347 342 1 13 17
147 162 155 147 141 178 195 201 175 159 157 202 228 183 178 160 187 182 156 180 179 166 138 135 144 131 216 305 260 252 232 219 220 234 246 261 272 159 231 309 351 7 9 24 25
170 137 129 153 158 181 198 178 190 142 221 228 181 142 189 212 91 88 95 121 144 147 131 135 142 149 209 352 300 268 222 204 193 201 207 210 234 145 216 276 334 359 20 30 34